Content
SEND FEEDBACK

Daily
Averages
Monthly
Summary
Mexico

PUEBLA - JARDINES DE SAN MANUEL, PUEBLA


Home > North America > Mexico > Puebla
Elevation: 6962 feet     Latitude: 19 00N     Longitude: 098 11W

WEATHER
 
SELECT A DAY
Number of Records: 123,283;   Date Range: 1/1/95 - 9/29/14
 
SHARE

PRINT THIS DATA

[ ← Previous Day ]
WEATHER ALMANAC - MARCH 31, 2013
[ Next Day → ]
[ °C ]   °F
Weather ElementAverageHighLow
Temperature65.7 °F78.8 °F (12:41 pm)46.4 °F (6:40 am)
Dewpoint38.9 °F48 °F (11:40 am)31 °F (2:50 am)
Humidity35.1 %62 % (6:40 am)22 % (2:40 pm)
Barometer30.14 in30.37 in (8:40 am)29.63 in (5:40 pm)
Wind Speed6.2 mph19.6 mph (2:41 pm)
Weather ElementAverage
Visibility6.7 mi
Wind DirectionSSW (200 °)

Weather ElementTotal
Precipitation---
Heating Degree Days2.4 (Base 65)
Growing Degree Days12.6 (Base 50)
Averaged from 27 records on March 31, 2013
WEATHER CONDITIONS BREAKOUT
WIND DIRECTION BREAKOUT
WEATHER BY HOUR - MARCH 31, 2013
[ °C ]   °F
Local TimeTemperatureDewpointHumidityBarometerVisibilityWind DirectionWind SpeedGust SpeedPrecipitationEventsConditions
2:50 AM56.0 °F31.0 °F27 %29.78 in3.0 miCalm
4:41 AM48.2 °F32.0 °F54 %30.31 in7.0 miWNW (290°)3.5 mphClear
5:42 AM48.2 °F32.0 °F54 %30.33 in7.0 miNW (310°)5.8 mphClear
5:50 AM52.0 °F35.0 °F41 %29.88 in3.0 miCalm
6:40 AM46.4 °F33.8 °F62 %30.35 in8.0 miNNW (330°)5.8 mphClear
7:40 AM53.6 °F33.8 °F47 %30.36 in8.0 miNW (310°)5.8 mphClear
8:40 AM60.8 °F33.8 °F36 %30.37 in7.0 miNorth (360°)5.8 mphClear
8:40 AM63.0 °F40.0 °F30 %29.96 in3.0 miCalmHaze
9:42 AM68.0 °F39.2 °F35 %30.37 in7.0 miESE (120°)4.6 mphClear
10:41 AM73.4 °F42.8 °F33 %30.36 in7.0 miSSE (150°)9.2 mphClear
11:40 AM77.0 °F48.0 °F25 %29.90 in6.0 miWSW (250°)4.5 mphHaze
11:41 AM75.2 °F41.0 °F29 %30.33 in8.0 miSSE (150°)11.5 mphClear
12:41 PM78.8 °F37.4 °F23 %30.30 in9.0 miSouth (170°)10.4 mphPartly Cloudy
1:40 PM78.8 °F37.4 °F23 %30.26 in9.0 miSouth (170°)12.7 mphScattered Clouds
2:40 PM78.0 °F46.0 °F22 %29.73 in3.0 miSSW (200°)4.5 mphHaze
2:41 PM73.4 °F41.0 °F31 %30.24 in9.0 miSSW (210°)19.6 mphMostly Cloudy
3:40 PM71.6 °F41.0 °F33 %30.22 in9.0 miSSW (200°)12.7 mphMostly Cloudy
4:44 PM71.6 °F39.2 °F31 %30.20 in9.0 miSSW (200°)9.2 mphMostly Cloudy
5:40 PM73.0 °F43.0 °F23 %29.63 in3.0 miWSW (250°)2.2 mphHaze
5:41 PM71.6 °F39.2 °F31 %30.22 in9.0 miSouth (180°)2.3 mphMostly Cloudy
6:40 PM68.0 °F39.2 °F35 %30.22 in9.0 miSouth (190°)5.8 mphMostly Cloudy
7:40 PM64.4 °F41.0 °F42 %30.25 in8.0 miNorth (10°)5.8 mphMostly Cloudy
8:40 PM68.0 °F39.2 °F35 %30.28 in8.0 miNorth (360°)13.8 mphMostly Cloudy
8:50 PM67.0 °F41.0 °F27 %29.63 in3.0 miNE (40°)2.2 mphScattered Clouds
9:42 PM64.4 °F41.0 °F42 %30.29 in8.0 miCalmScattered Clouds
10:40 PM60.8 °F41.0 °F48 %30.31 in8.0 miWest (280°)6.9 mphScattered Clouds
11:50 PM64.0 °F40.0 °F30 %29.69 in3.0 miENE (70°)2.2 mphPartly Cloudy
Hourly data recorded from MMPB, located miles away from Puebla - Jardines de San Manuel, Puebla







STORIES FROM OUR PARTNERS